| time (UTC) | temp F | wind direction | speed MPH | gust MPH | rain 1hr in | rain 24hr in | rain mn in | humidity % | barometer mb |
| 20260505063505 | 72 | 294 | 1.0 | 5.0 | 0.00 | 0.00 | 0.00 | 38 | 997.4 |
| 20260505063004 | 72 | 304 | 1.0 | 7.0 | 0.00 | 0.00 | 0.00 | 39 | 997.6 |
| 20260505062504 | 72 | 306 | 1.0 | 7.0 | 0.00 | 0.00 | 0.00 | 40 | 997.3 |
| 20260505062004 | 72 | 303 | 0.0 | 4.0 | 0.00 | 0.00 | 0.00 | 40 | 997.2 |
| 20260505061504 | 72 | 294 | 1.0 | 6.0 | 0.00 | 0.00 | 0.00 | 40 | 997.3 |
| 20260505061004 | 72 | 301 | 2.0 | 6.0 | 0.00 | 0.00 | 0.00 | 40 | 997.6 |
| 20260505060504 | 72 | 307 | 1.0 | 5.0 | 0.00 | 0.00 | 0.00 | 40 | 997.6 |
| 20260505060005 | 72 | 309 | 1.0 | 5.0 | 0.00 | 0.00 | 0.00 | 39 | 997.6 |
| 20260505055505 | 72 | 308 | 1.0 | 5.0 | 0.00 | 0.00 | 0.00 | 39 | 997.5 |
| 20260505055004 | 73 | 307 | 2.0 | 6.0 | 0.00 | 0.00 | 0.00 | 38 | 997.4 |
| 20260505054505 | 73 | 315 | 2.0 | 9.0 | 0.00 | 0.00 | 0.00 | 38 | 997.7 |
| 20260505054005 | 73 | 321 | 1.0 | 9.0 | 0.00 | 0.00 | 0.00 | 37 | 997.8 |
| 20260505053505 | 73 | 314 | 1.0 | 4.0 | 0.00 | 0.00 | 0.00 | 36 | 997.7 |
| 20260505053004 | 73 | 307 | 1.0 | 5.0 | 0.00 | 0.00 | 0.00 | 36 | 998.0 |
| 20260505052005 | 73 | 317 | 2.0 | 5.0 | 0.00 | 0.00 | 0.00 | 35 | 997.6 |
| 20260505051506 | 74 | 318 | 2.0 | 5.0 | 0.00 | 0.00 | 0.00 | 35 | 997.7 |
| 20260505051004 | 74 | 323 | 0.0 | 3.0 | 0.00 | 0.00 | 0.00 | 34 | 997.7 |
| 20260505050504 | 74 | 0 | 0.0 | 0.0 | 0.00 | 0.00 | 0.00 | 35 | 997.7 |
| 20260505041505 | 75 | 314 | 0.0 | 4.0 | 0.00 | 0.00 | 0.00 | 28 | 997.8 |
| 20260505041004 | 76 | 295 | 0.0 | 4.0 | 0.00 | 0.00 | 0.00 | 26 | 998.2 |
| 20260505040504 | 76 | 274 | 0.0 | 3.0 | 0.00 | 0.00 | 0.00 | 26 | 997.8 |
| 20260505035504 | 76 | 292 | 0.0 | 9.0 | 0.00 | 0.00 | 0.00 | 25 | 997.7 |
| 20260505035005 | 76 | 0 | 0.0 | 0.0 | 0.00 | 0.00 | 0.00 | 26 | 997.6 |
| 20260505034505 | 76 | 291 | 0.0 | 3.0 | 0.00 | 0.00 | 0.00 | 26 | 997.6 |
| 20260505034004 | 76 | 293 | 1.0 | 7.0 | 0.00 | 0.00 | 0.00 | 26 | 997.5 |
| 20260505033505 | 76 | 295 | 1.0 | 12.0 | 0.00 | 0.00 | 0.00 | 25 | 997.5 |
| 20260505033004 | 76 | 294 | 2.0 | 16.0 | 0.00 | 0.00 | 0.00 | 24 | 997.2 |
| 20260505032504 | 76 | 294 | 3.0 | 16.0 | 0.00 | 0.00 | 0.00 | 24 | 997.2 |
| 20260505032005 | 76 | 296 | 4.0 | 15.0 | 0.00 | 0.00 | 0.00 | 23 | 997.2 |
| 20260505031505 | 76 | 298 | 4.0 | 13.0 | 0.00 | 0.00 | 0.00 | 24 | 997.1 |
| 20260505031004 | 76 | 299 | 5.0 | 16.0 | 0.00 | 0.00 | 0.00 | 25 | 997.1 |
| 20260505030005 | 77 | 306 | 5.0 | 19.0 | 0.00 | 0.00 | 0.00 | 26 | 997.1 |
| 20260505025505 | 77 | 295 | 4.0 | 17.0 | 0.00 | 0.00 | 0.00 | 26 | 997.0 |
| 20260505025005 | 77 | 290 | 2.0 | 15.0 | 0.00 | 0.00 | 0.00 | 26 | 996.9 |
| 20260505024505 | 77 | 299 | 4.0 | 17.0 | 0.00 | 0.00 | 0.00 | 26 | 996.7 |
| 20260505024004 | 77 | 298 | 6.0 | 19.0 | 0.00 | 0.00 | 0.00 | 26 | 996.6 |
| 20260505023504 | 77 | 298 | 5.0 | 19.0 | 0.00 | 0.00 | 0.00 | 27 | 996.5 |
| 20260505023004 | 78 | 308 | 4.0 | 17.0 | 0.00 | 0.00 | 0.00 | 27 | 996.3 |
| 20260505022504 | 78 | 303 | 5.0 | 20.0 | 0.00 | 0.00 | 0.00 | 27 | 996.5 |
| 20260505022004 | 78 | 299 | 6.0 | 20.0 | 0.00 | 0.00 | 0.00 | 26 | 996.3 |
| 20260505021504 | 78 | 301 | 7.0 | 21.0 | 0.00 | 0.00 | 0.00 | 25 | 996.3 |
| 20260505021004 | 78 | 308 | 8.0 | 21.0 | 0.00 | 0.00 | 0.00 | 24 | 996.1 |
| 20260505020505 | 78 | 305 | 8.0 | 20.0 | 0.00 | 0.00 | 0.00 | 24 | 995.9 |
| 20260505020005 | 79 | 303 | 8.0 | 20.0 | 0.00 | 0.00 | 0.00 | 25 | 995.7 |
| 20260505015505 | 79 | 305 | 8.0 | 24.0 | 0.00 | 0.00 | 0.00 | 24 | 995.8 |
| 20260505015004 | 79 | 310 | 8.0 | 25.0 | 0.00 | 0.00 | 0.00 | 23 | 995.6 |
| 20260505014504 | 79 | 315 | 8.0 | 25.0 | 0.00 | 0.00 | 0.00 | 22 | 995.5 |
| 20260505014004 | 79 | 306 | 9.0 | 24.0 | 0.00 | 0.00 | 0.00 | 24 | 995.6 |
| 20260505013504 | 79 | 306 | 12.0 | 27.0 | 0.00 | 0.00 | 0.00 | 23 | 995.6 |
| 20260505013004 | 80 | 310 | 11.0 | 27.0 | 0.00 | 0.00 | 0.00 | 22 | 995.6 |
| 20260505012504 | 80 | 305 | 9.0 | 25.0 | 0.00 | 0.00 | 0.00 | 22 | 995.6 |
| 20260505012005 | 80 | 308 | 10.0 | 25.0 | 0.00 | 0.00 | 0.00 | 22 | 995.6 |
| 20260505011505 | 80 | 312 | 11.0 | 25.0 | 0.00 | 0.00 | 0.00 | 22 | 995.5 |
| 20260505011005 | 80 | 302 | 11.0 | 24.0 | 0.00 | 0.00 | 0.00 | 23 | 995.6 |
| 20260505010505 | 80 | 307 | 10.0 | 24.0 | 0.00 | 0.00 | 0.00 | 24 | 995.4 |
| 20260505010005 | 80 | 311 | 9.0 | 22.0 | 0.00 | 0.00 | 0.00 | 25 | 995.3 |
| 20260505005504 | 81 | 305 | 10.0 | 27.0 | 0.00 | 0.00 | 0.00 | 26 | 995.5 |
| 20260505005004 | 81 | 313 | 10.0 | 27.0 | 0.00 | 0.00 | 0.00 | 27 | 995.6 |
| 20260505004505 | 81 | 310 | 9.0 | 26.0 | 0.00 | 0.00 | 0.00 | 27 | 995.6 |
| 20260505004004 | 81 | 302 | 6.0 | 21.0 | 0.00 | 0.00 | 0.00 | 28 | 995.4 |
| 20260505003504 | 82 | 313 | 5.0 | 19.0 | 0.00 | 0.00 | 0.00 | 28 | 995.4 |
| 20260505003004 | 82 | 311 | 5.0 | 19.0 | 0.00 | 0.00 | 0.00 | 27 | 995.1 |
| 20260505002504 | 82 | 304 | 6.0 | 19.0 | 0.00 | 0.00 | 0.00 | 27 | 995.4 |
| 20260505002004 | 82 | 307 | 9.0 | 26.0 | 0.00 | 0.00 | 0.00 | 28 | 995.4 |
| 20260505001504 | 82 | 307 | 10.0 | 26.0 | 0.00 | 0.00 | 0.00 | 27 | 995.5 |
| 20260505001004 | 82 | 311 | 8.0 | 20.0 | 0.00 | 0.00 | 0.00 | 28 | 995.3 |
| 20260505000504 | 83 | 303 | 7.0 | 18.0 | 0.00 | 0.00 | 0.00 | 28 | 995.3 |
| 20260505000004 | 83 | 304 | 8.0 | 20.0 | 0.00 | 0.00 | 0.00 | 28 | 995.3 |
| 20260504235504 | 83 | 310 | 8.0 | 20.0 | 0.00 | 0.00 | 0.00 | 26 | 995.6 |
| 20260504235004 | 84 | 308 | 6.0 | 20.0 | 0.00 | 0.00 | 0.00 | 25 | 995.5 |
| 20260504234504 | 84 | 306 | 5.0 | 23.0 | 0.00 | 0.00 | 0.00 | 23 | 995.6 |
| 20260504233505 | 85 | 301 | 5.0 | 15.0 | 0.00 | 0.00 | 0.00 | 21 | 995.4 |
| 20260504233005 | 85 | 295 | 5.0 | 18.0 | 0.00 | 0.00 | 0.00 | 20 | 995.3 |
| 20260504232505 | 85 | 288 | 6.0 | 18.0 | 0.00 | 0.00 | 0.00 | 20 | 995.4 |
| 20260504232005 | 85 | 286 | 5.0 | 22.0 | 0.00 | 0.00 | 0.00 | 19 | 995.4 |
| 20260504231504 | 86 | 288 | 5.0 | 22.0 | 0.00 | 0.00 | 0.00 | 19 | 995.5 |
| 20260504231004 | 86 | 301 | 5.0 | 19.0 | 0.00 | 0.00 | 0.00 | 20 | 995.6 |
| 20260504230504 | 86 | 301 | 6.0 | 19.0 | 0.00 | 0.00 | 0.00 | 22 | 995.6 |
| 20260504230005 | 86 | 288 | 5.0 | 16.0 | 0.00 | 0.00 | 0.00 | 22 | 995.6 |
| 20260504225504 | 87 | 287 | 4.0 | 14.0 | 0.00 | 0.00 | 0.00 | 26 | 995.6 |
| 20260504225004 | 87 | 311 | 6.0 | 23.0 | 0.00 | 0.00 | 0.00 | 27 | 995.6 |
| 20260504224504 | 87 | 310 | 7.0 | 23.0 | 0.00 | 0.00 | 0.00 | 28 | 995.6 |
| 20260504223504 | 87 | 299 | 8.0 | 19.0 | 0.00 | 0.00 | 0.00 | 28 | 995.7 |
| 20260504223004 | 87 | 296 | 7.0 | 19.0 | 0.00 | 0.00 | 0.00 | 28 | 995.6 |
| 20260504222504 | 88 | 289 | 5.0 | 16.0 | 0.00 | 0.00 | 0.00 | 28 | 995.6 |
| 20260504222004 | 88 | 287 | 4.0 | 16.0 | 0.00 | 0.00 | 0.00 | 28 | 995.6 |
| 20260504221504 | 88 | 265 | 4.0 | 19.0 | 0.00 | 0.00 | 0.00 | 27 | 995.6 |
| 20260504221005 | 88 | 274 | 6.0 | 19.0 | 0.00 | 0.00 | 0.00 | 27 | 995.6 |
| 20260504220505 | 89 | 272 | 6.0 | 19.0 | 0.00 | 0.00 | 0.00 | 27 | 995.6 |
| 20260504220004 | 89 | 258 | 3.0 | 15.0 | 0.00 | 0.00 | 0.00 | 26 | 995.7 |
| 20260504215004 | 90 | 294 | 4.0 | 15.0 | 0.00 | 0.00 | 0.00 | 26 | 996.0 |
| 20260504214504 | 90 | 277 | 4.0 | 15.0 | 0.00 | 0.00 | 0.00 | 25 | 996.1 |
| 20260504214004 | 90 | 260 | 3.0 | 12.0 | 0.00 | 0.00 | 0.00 | 24 | 996.1 |
| 20260504213504 | 90 | 263 | 4.0 | 12.0 | 0.00 | 0.00 | 0.00 | 24 | 996.0 |
| 20260504212505 | 89 | 220 | 6.0 | 19.0 | 0.00 | 0.00 | 0.00 | 25 | 996.1 |
| 20260504212004 | 89 | 242 | 4.0 | 17.0 | 0.00 | 0.00 | 0.00 | 26 | 996.1 |
| 20260504211505 | 89 | 248 | 5.0 | 14.0 | 0.00 | 0.00 | 0.00 | 25 | 996.2 |
| 20260504211004 | 89 | 243 | 5.0 | 14.0 | 0.00 | 0.00 | 0.00 | 24 | 996.3 |
| 20260504210504 | 89 | 246 | 5.0 | 16.0 | 0.00 | 0.00 | 0.00 | 22 | 996.5 |
| 20260504210004 | 88 | 242 | 6.0 | 16.0 | 0.00 | 0.00 | 0.00 | 20 | 996.6 |
| 20260504205505 | 89 | 232 | 4.0 | 16.0 | 0.00 | 0.00 | 0.00 | 22 | 996.6 |
| 20260504205004 | 89 | 223 | 5.0 | 20.0 | 0.00 | 0.00 | 0.00 | 23 | 996.7 |
| 20260504204004 | 89 | 215 | 5.0 | 21.0 | 0.00 | 0.00 | 0.00 | 22 | 996.6 |
| 20260504203505 | 89 | 209 | 3.0 | 16.0 | 0.00 | 0.00 | 0.00 | 22 | 996.6 |
| 20260504202504 | 89 | 233 | 6.0 | 24.0 | 0.00 | 0.00 | 0.00 | 23 | 996.8 |
| 20260504202004 | 89 | 224 | 2.0 | 21.0 | 0.00 | 0.00 | 0.00 | 24 | 996.9 |
| 20260504201504 | 89 | 215 | 4.0 | 20.0 | 0.00 | 0.00 | 0.00 | 25 | 996.8 |
| 20260504201004 | 88 | 212 | 6.0 | 20.0 | 0.00 | 0.00 | 0.00 | 26 | 997.2 |
| 20260504200504 | 88 | 215 | 4.0 | 16.0 | 0.00 | 0.00 | 0.00 | 27 | 997.2 |
| 20260504200004 | 88 | 221 | 6.0 | 16.0 | 0.00 | 0.00 | 0.00 | 28 | 997.2 |
| 20260504195504 | 87 | 225 | 7.0 | 16.0 | 0.00 | 0.00 | 0.00 | 28 | 997.2 |
| 20260504195004 | 88 | 230 | 4.0 | 14.0 | 0.00 | 0.00 | 0.00 | 29 | 997.2 |
| 20260504194504 | 88 | 272 | 2.0 | 14.0 | 0.00 | 0.00 | 0.00 | 29 | 997.2 |
| 20260504194004 | 87 | 250 | 3.0 | 10.0 | 0.00 | 0.00 | 0.00 | 30 | 997.4 |
| 20260504193504 | 86 | 202 | 4.0 | 14.0 | 0.00 | 0.00 | 0.00 | 32 | 997.2 |
| 20260504193004 | 86 | 212 | 4.0 | 14.0 | 0.00 | 0.00 | 0.00 | 32 | 997.3 |
| 20260504192505 | 86 | 219 | 3.0 | 14.0 | 0.00 | 0.00 | 0.00 | 31 | 997.7 |
| 20260504192004 | 86 | 209 | 4.0 | 11.0 | 0.00 | 0.00 | 0.00 | 31 | 997.6 |
| 20260504191004 | 87 | 210 | 6.0 | 21.0 | 0.00 | 0.00 | 0.00 | 28 | 997.8 |
| 20260504190504 | 87 | 199 | 5.0 | 16.0 | 0.00 | 0.00 | 0.00 | 28 | 997.8 |
| 20260504190004 | 87 | 208 | 4.0 | 16.0 | 0.00 | 0.00 | 0.00 | 28 | 997.8 |
| 20260504185504 | 86 | 230 | 4.0 | 15.0 | 0.00 | 0.00 | 0.00 | 31 | 997.8 |
| 20260504185004 | 85 | 226 | 4.0 | 15.0 | 0.00 | 0.00 | 0.00 | 31 | 998.2 |
| 20260504184504 | 84 | 221 | 6.0 | 19.0 | 0.00 | 0.00 | 0.00 | 34 | 998.2 |
| 20260504184004 | 84 | 230 | 6.0 | 19.0 | 0.00 | 0.00 | 0.00 | 35 | 998.2 |
| 20260504183003 | 85 | 205 | 3.0 | 9.0 | 0.00 | 0.00 | 0.00 | 33 | 998.3 |
| 20260504182505 | 85 | 197 | 4.0 | 13.0 | 0.00 | 0.00 | 0.00 | 34 | 998.3 |
| 20260504181004 | 84 | 220 | 5.0 | 13.0 | 0.00 | 0.00 | 0.00 | 36 | 998.6 |
| 20260504180004 | 83 | 199 | 4.0 | 14.0 | 0.00 | 0.00 | 0.00 | 39 | 998.7 |
| 20260504175504 | 83 | 182 | 3.0 | 7.0 | 0.00 | 0.00 | 0.00 | 39 | 998.7 |
| 20260504175004 | 82 | 197 | 3.0 | 10.0 | 0.00 | 0.00 | 0.00 | 39 | 998.7 |
| 20260504174004 | 82 | 176 | 4.0 | 13.0 | 0.00 | 0.00 | 0.00 | 41 | 999.1 |
| 20260504173004 | 81 | 164 | 4.0 | 14.0 | 0.00 | 0.00 | 0.00 | 42 | 998.9 |
| 20260504172504 | 81 | 171 | 3.0 | 14.0 | 0.00 | 0.00 | 0.00 | 43 | 999.1 |
| 20260504172004 | 81 | 178 | 3.0 | 9.0 | 0.00 | 0.00 | 0.00 | 43 | 998.7 |
| 20260504171504 | 81 | 172 | 2.0 | 10.0 | 0.00 | 0.00 | 0.00 | 43 | 998.8 |
| 20260504171004 | 81 | 185 | 2.0 | 10.0 | 0.00 | 0.00 | 0.00 | 43 | 998.8 |
| 20260504170504 | 80 | 203 | 2.0 | 7.0 | 0.00 | 0.00 | 0.00 | 44 | 998.8 |
| 20260504151004 | 75 | 186 | 1.0 | 4.0 | 0.00 | 0.00 | 0.00 | 58 | 999.1 |
| 20260504150504 | 74 | 186 | 1.0 | 4.0 | 0.00 | 0.00 | 0.00 | 57 | 999.0 |
| 20260504140504 | 70 | 0 | 0.0 | 0.0 | 0.00 | 0.00 | 0.00 | 47 | 998.6 |
| 20260504130503 | 67 | 0 | 0.0 | 0.0 | 0.00 | 0.00 | 0.00 | 48 | 997.5 |
| 20260504110504 | 70 | 197 | 0.0 | 4.0 | 0.00 | 0.00 | 0.00 | 44 | 997.1 |
| 20260504100504 | 70 | 0 | 0.0 | 0.0 | 0.00 | 0.00 | 0.00 | 46 | 996.7 |
| 20260504081505 | 72 | 0 | 0.0 | 0.0 | 0.00 | 0.00 | 0.00 | 43 | 996.9 |
| 20260504081005 | 72 | 0 | 0.0 | 0.0 | 0.00 | 0.00 | 0.00 | 43 | 997.1 |
| 20260504080505 | 72 | 0 | 0.0 | 0.0 | 0.00 | 0.00 | 0.00 | 43 | 996.9 |